When you browse on this site, cookies collect data to enhance your experience and personalize the content and advertising you see.
Visit our Privacy Policy to learn more. By continuing to use the site, you agree to this use of cookies and data.
  • In Spain
  • List of Countries
  • For 7 days
  • Water Temperature
  • Weather Map
  • Weather Widgets
  • user-avatar
    Login

    Hourly Weather Korçe

    Today, 7 April, Tuesday

    Time Temperature Precipitation Wind Pressure Humidity
    00:00 +2°C° 0 mm 2 mps 670 mmHg 85%
    01:00 +3°C° 0 mm 1 mps 670 mmHg 85%
    02:00 +3°C° 0 mm 1 mps 670 mmHg 82%
    03:00 +2°C° 0 mm 2 mps 670 mmHg 80%
    04:00 +2°C° 0 mm 2 mps 670 mmHg 78%
    05:00 +3°C° 0 mm 2 mps 670 mmHg 71%
    06:00 +3°C° 0 mm 2 mps 671 mmHg 65%
    07:00 +5°C° 0 mm 2 mps 671 mmHg 57%
    08:00 +5°C° 0 mm 3 mps 671 mmHg 49%
    09:00 +6°C° 0 mm 4 mps 672 mmHg 42%
    10:00 +8°C° 0 mm 5 mps 672 mmHg 34%
    11:00 +8°C° 0 mm 5 mps 672 mmHg 34%
    12:00 +8°C° 0 mm 5 mps 673 mmHg 34%
    13:00 +9°C° 0 mm 5 mps 673 mmHg 34%
    14:00 +8°C° 0 mm 5 mps 672 mmHg 36%
    15:00 +8°C° 0 mm 4 mps 672 mmHg 39%
    16:00 +7°C° 0 mm 4 mps 672 mmHg 42%
    17:00 +7°C° 0 mm 3 mps 671 mmHg 48%
    18:00 +4°C° 0 mm 3 mps 671 mmHg 54%
    19:00 +3°C° 0 mm 2 mps 671 mmHg 60%
    20:00 +3°C° 0 mm 2 mps 671 mmHg 61%
    21:00 +3°C° 0 mm 2 mps 671 mmHg 62%
    22:00 +2°C° 0 mm 2 mps 671 mmHg 62%
    23:00 +2°C° 0 mm 2 mps 671 mmHg 63%

    Tomorrow, 8 April, Wednesday

    Time Temperature Precipitation Wind Pressure Humidity
    00:00 +2°C° 0 mm 2 mps 671 mmHg 63%
    01:00 +1°C° 0 mm 2 mps 671 mmHg 63%
    02:00 +1°C° 0 mm 2 mps 671 mmHg 63%
    03:00 +1°C° 0 mm 2 mps 670 mmHg 62%
    04:00 +1°C° 0 mm 2 mps 670 mmHg 62%
    05:00 +2°C° 0 mm 2 mps 670 mmHg 60%
    06:00 +3°C° 0 mm 2 mps 671 mmHg 59%
    07:00 +4°C° 0 mm 2 mps 671 mmHg 57%
    08:00 +6°C° 0 mm 2 mps 671 mmHg 50%
    09:00 +7°C° 0 mm 3 mps 672 mmHg 43%
    10:00 +9°C° 0 mm 3 mps 672 mmHg 36%
    11:00 +10°C° 0 mm 3 mps 672 mmHg 36%
    12:00 +10°C° 0 mm 3 mps 672 mmHg 35%
    13:00 +11°C° 0 mm 3 mps 671 mmHg 35%
    14:00 +11°C° 0 mm 3 mps 671 mmHg 37%
    15:00 +12°C° 0 mm 2 mps 671 mmHg 38%
    16:00 +10°C° 0 mm 2 mps 670 mmHg 40%
    17:00 +9°C° 0 mm 2 mps 670 mmHg 46%
    18:00 +7°C° 0 mm 2 mps 669 mmHg 52%
    19:00 +6°C° 0 mm 1 mps 669 mmHg 58%
    20:00 +5°C° 0 mm 1 mps 669 mmHg 58%
    21:00 +5°C° 0 mm 1 mps 669 mmHg 58%
    22:00 +4°C° 0 mm 1 mps 669 mmHg 58%
    23:00 +4°C° 0 mm 1 mps 669 mmHg 59%

    Day after tomorrow, 9 April, Thursday

    Time Temperature Precipitation Wind Pressure Humidity
    00:00 +4°C° 0 mm 1 mps 668 mmHg 60%
    01:00 +3°C° 0 mm 1 mps 668 mmHg 60%
    02:00 +3°C° 0 mm 1 mps 668 mmHg 61%
    03:00 +3°C° 0 mm 1 mps 667 mmHg 61%
    04:00 +3°C° 0 mm 1 mps 667 mmHg 62%
    05:00 +4°C° 0 mm 1 mps 668 mmHg 61%
    06:00 +5°C° 0 mm 1 mps 668 mmHg 60%
    07:00 +7°C° 0 mm 1 mps 668 mmHg 59%
    08:00 +9°C° 0 mm 1 mps 669 mmHg 52%
    09:00 +11°C° 0 mm 1 mps 669 mmHg 44%
    10:00 +13°C° 0 mm 1 mps 670 mmHg 37%
    11:00 +14°C° 0 mm 1 mps 670 mmHg 35%
    12:00 +14°C° 0 mm 2 mps 670 mmHg 34%
    13:00 +15°C° 0 mm 2 mps 670 mmHg 32%
    14:00 +15°C° 0 mm 2 mps 669 mmHg 36%
    15:00 +14°C° 0 mm 2 mps 669 mmHg 41%
    16:00 +13°C° 0 mm 3 mps 669 mmHg 45%
    17:00 +12°C° 0 mm 2 mps 668 mmHg 54%
    18:00 +9°C° 0 mm 2 mps 668 mmHg 63%
    19:00 +7°C° 0 mm 1 mps 667 mmHg 72%
    20:00 +7°C° 0 mm 1 mps 667 mmHg 72%
    21:00 +7°C° 0 mm 1 mps 667 mmHg 71%
    22:00 +6°C° 0 mm 1 mps 668 mmHg 71%
    23:00 +6°C° 0 mm 1 mps 667 mmHg 70%

    10 April, Friday

    Time Temperature Precipitation Wind Pressure Humidity
    00:00 +6°C° 0 mm 1 mps 667 mmHg 69%
    01:00 +5°C° 0 mm 1 mps 667 mmHg 68%
    02:00 +5°C° 0 mm 1 mps 667 mmHg 68%
    03:00 +5°C° 0 mm 1 mps 667 mmHg 68%
    04:00 +5°C° 0 mm 1 mps 667 mmHg 68%
    05:00 +6°C° 0 mm 1 mps 667 mmHg 66%
    06:00 +7°C° 0 mm 1 mps 667 mmHg 64%
    07:00 +9°C° 0 mm 1 mps 668 mmHg 63%
    08:00 +10°C° 0 mm 1 mps 668 mmHg 56%
    09:00 +12°C° 0 mm 1 mps 669 mmHg 49%
    10:00 +14°C° 0 mm 1 mps 670 mmHg 42%
    11:00 +15°C° 0 mm 1 mps 670 mmHg 40%
    12:00 +16°C° 0 mm 2 mps 669 mmHg 39%
    13:00 +16°C° 0 mm 2 mps 669 mmHg 37%
    14:00 +16°C° 0 mm 2 mps 669 mmHg 41%
    15:00 +14°C° 0 mm 3 mps 669 mmHg 45%
    16:00 +14°C° 0 mm 3 mps 668 mmHg 49%
    17:00 +13°C° 0 mm 2 mps 668 mmHg 58%
    18:00 +10°C° 0 mm 2 mps 668 mmHg 67%
    19:00 +9°C° 0 mm 1 mps 667 mmHg 76%
    20:00 +9°C° 0 mm 1 mps 667 mmHg 75%
    21:00 +8°C° 0 mm 1 mps 668 mmHg 75%
    22:00 +8°C° 0 mm 1 mps 668 mmHg 74%
    23:00 +7°C° 0 mm 1 mps 668 mmHg 73%

    11 April, Saturday

    Time Temperature Precipitation Wind Pressure Humidity
    00:00 +7°C° 0 mm 1 mps 668 mmHg 71%
    01:00 +7°C° 0 mm 1 mps 668 mmHg 70%
    02:00 +7°C° 0 mm 1 mps 668 mmHg 70%
    03:00 +6°C° 0 mm 1 mps 668 mmHg 69%
    04:00 +6°C° 0 mm 1 mps 668 mmHg 69%
    05:00 +7°C° 0 mm 1 mps 668 mmHg 67%
    06:00 +8°C° 0 mm 1 mps 668 mmHg 66%
    07:00 +10°C° 0 mm 1 mps 669 mmHg 64%
    08:00 +11°C° 0 mm 1 mps 669 mmHg 57%
    09:00 +13°C° 0 mm 1 mps 670 mmHg 50%
    10:00 +15°C° 0 mm 1 mps 671 mmHg 43%
    11:00 +16°C° 0 mm 1 mps 671 mmHg 42%
    12:00 +16°C° 0 mm 1 mps 671 mmHg 41%
    13:00 +18°C° 0 mm 1 mps 671 mmHg 40%
    14:00 +16°C° 0.1 mm 1 mps 670 mmHg 46%
    15:00 +15°C° 0.1 mm 2 mps 670 mmHg 51%
    16:00 +14°C° 0.1 mm 2 mps 669 mmHg 57%
    17:00 +13°C° 0.3 mm 2 mps 669 mmHg 65%
    18:00 +11°C° 0.3 mm 1 mps 669 mmHg 73%
    19:00 +10°C° 0.3 mm 1 mps 668 mmHg 81%
    20:00 +10°C° 0.1 mm 1 mps 669 mmHg 81%
    21:00 +9°C° 0.1 mm 0 mps 669 mmHg 81%
    22:00 +8°C° 0.1 mm 0 mps 669 mmHg 81%
    23:00 +8°C° 0.2 mm 0 mps 669 mmHg 82%

    12 April, Sunday

    Time Temperature Precipitation Wind Pressure Humidity
    00:00 +8°C° 0.2 mm 0 mps 669 mmHg 82%
    01:00 +8°C° 0.2 mm 0 mps 668 mmHg 83%
    02:00 +8°C° 0.2 mm 0 mps 668 mmHg 84%
    03:00 +7°C° 0.2 mm 0 mps 668 mmHg 85%
    04:00 +7°C° 0.2 mm 0 mps 668 mmHg 86%
    05:00 +8°C° 0.1 mm 0 mps 668 mmHg 83%
    06:00 +8°C° 0.1 mm 0 mps 668 mmHg 80%
    07:00 +9°C° 0.1 mm 0 mps 669 mmHg 77%
    08:00 +12°C° 0.1 mm 1 mps 669 mmHg 70%
    09:00 +13°C° 0.1 mm 1 mps 669 mmHg 64%
    10:00 +14°C° 0.1 mm 1 mps 670 mmHg 57%
    11:00 +14°C° 0.2 mm 1 mps 669 mmHg 58%
    12:00 +14°C° 0.2 mm 1 mps 669 mmHg 58%
    13:00 +14°C° 0.2 mm 2 mps 669 mmHg 58%
    14:00 +14°C° 0.3 mm 2 mps 669 mmHg 62%
    15:00 +13°C° 0.3 mm 2 mps 668 mmHg 65%
    16:00 +13°C° 0.3 mm 2 mps 668 mmHg 69%
    17:00 +10°C° 0.1 mm 2 mps 668 mmHg 74%
    18:00 +10°C° 0.1 mm 1 mps 667 mmHg 79%
    19:00 +9°C° 0.1 mm 1 mps 667 mmHg 83%
    20:00 +9°C° 0 mm 1 mps 667 mmHg 84%
    21:00 +7°C° 0 mm 0 mps 667 mmHg 85%
    22:00 +7°C° 0 mm 0 mps 667 mmHg 85%
    23:00 +6°C° 0 mm 0 mps 667 mmHg 85%
    Show more